• Join FlightAware (Why Join?)
  • Login
  • US Flag 
02:34PM EST


 

Airport Tracker/Info


-or-


 

Live Flight TrackerFlight Track Log ✈ SKW4658 ✈ 04-May-2013 ✈ KMSP - KTUL

Flight Track Log - Related Links

Times and Time Zones

All times are in EDT time to prevent confusion due to time zone crossing. See the SKW4658 flight status page for this flight to view local times or setup timezone preferences in your user account.

Time Position Orientation Groundspeed Altitude Reporting Facility
EDT Latitude Longitude Course Direction KTS MPH feet Rate Location/Type
11:24AM 44.9000 -93.2833 196° South 213 245 3,000  Level Minneapolis TRACON
11:25AM 44.8964 -93.3058 257° West 220 253 3,900 2,753 Climbing Minneapolis Center
11:26AM 44.8811 -93.4217 259° West 269 310 6,900 2,976 Climbing Minneapolis Center
11:27AM 44.4448 -93.3746 196° South  Level Estimated
11:27AM 44.8139 -93.4586 201° Southwest 264 304 10,000  Level Minneapolis Center
11:28AM 44.3478 -93.4548 211° Southwest  Level FlightAware Approximate
11:28AM 44.7403 -93.4900 197° South 281 323 12,100  Level Minneapolis Center
11:29AM 44.2383 -93.4918 200° South  Level Estimated
11:29AM 44.6581 -93.5239 196° South 310 357 14,400  Level Minneapolis Center
11:30AM 44.1289 -93.5287 196° South  Level Estimated
11:30AM 44.5706 -93.5608 197° South 333 383 16,200  Level Minneapolis Center
11:31AM 44.4797 -93.5992 197° South 342 394 17,600 1,220 Climbing Minneapolis Center
11:32AM 44.3681 -93.6681 204° Southwest 369 425 18,700 1,366 Climbing Minneapolis Center
11:33AM 44.2747 -93.7431 210° Southwest 387 445 20,400 1,426 Climbing Minneapolis Center
11:34AM 44.1769 -93.8200 209° Southwest 399 459 21,600 1,220 Climbing Minneapolis Center
11:35AM 44.0783 -93.8992 210° Southwest 408 470 22,900 1,220 Climbing Minneapolis Center
11:36AM 43.9778 -93.9789 210° Southwest 414 476 24,100 1,073 Climbing Minneapolis Center
11:37AM 43.8758 -94.0600 210° Southwest 420 483 25,100 1,024 Climbing Minneapolis Center
11:38AM 43.7733 -94.1417 210° Southwest 425 489 26,200 1,268 Climbing Minneapolis Center
11:39AM 43.6714 -94.2206 209° Southwest 423 487 27,700 1,463 Climbing Minneapolis Center
11:40AM 43.5383 -94.2333 184° South 399 459 29,200 1,317 Climbing Minneapolis Center
11:41AM 43.4247 -94.2397 182° South 401 461 30,400 1,073 Climbing Minneapolis Center
11:42AM 43.3122 -94.2467 183° South 401 461 31,400 634 Climbing Minneapolis Center
11:43AM 43.2003 -94.2550 183° South 402 463 31,700 195 Climbing Minneapolis Center
11:44AM 43.0828 -94.2628 183° South 416 479 31,800 49 Climbing Minneapolis Center
11:45AM 42.9675 -94.2703 183° South 428 493 31,800 98 Level Minneapolis Center
11:46AM 42.8489 -94.2783 183° South 430 495 32,000 98 Climbing Minneapolis Center
11:47AM 42.7039 -94.2883 183° South 435 501 32,000  Level Minneapolis Center
11:48AM 42.5800 -94.2997 184° South 440 506 32,000  Level Minneapolis Center
11:49AM 42.4583 -94.3333 192° South 443 510 32,000  Level Minneapolis Center
11:50AM 42.3367 -94.3617 190° South 443 510 32,000  Level Minneapolis Center
11:51AM 42.2131 -94.3914 190° South 448 516 32,000 197 Level Minneapolis Center
11:52AM 42.1158 -94.4153 190° South 445 512 32,400 488 Climbing Minneapolis Center
11:53AM 41.9750 -94.4492 190° South 431 496 33,000 293 Climbing Minneapolis Center
11:54AM 41.8586 -94.4775 190° South 426 490 33,000  Level Minneapolis Center
11:57AM 41.5992 -94.5408 190° South 429 494 33,000  Level Minneapolis Center
11:58AM 41.4558 -94.5758 190° South 433 498 33,000 290 Level Minneapolis Center
11:59AM 41.3378 -94.6019 189° South 430 495 33,600 484 Climbing Minneapolis Center
12:00PM 41.2206 -94.6311 191° South 427 491 34,000 195 Climbing Minneapolis Center
12:01PM 41.1039 -94.6589 190° South 425 489 34,000  Level Minneapolis Center
12:02PM 40.9864 -94.6861 190° South 426 490 34,000  Level Minneapolis Center
12:03PM 40.8706 -94.7136 190° South 423 487 34,000 -244 Level Minneapolis Center
12:04PM 40.7544 -94.7397 190° South 423 487 33,500 -488 Descending Minneapolis Center
12:05PM 40.6578 -94.7633 190° South 428 493 33,000 -537 Descending Minneapolis Center
12:06PM 40.5114 -94.7981 190° South 439 505 32,400 -488 Descending Minneapolis Center
12:07PM 40.3650 -94.8311 190° South 441 507 32,000 -195 Descending Minneapolis Center
12:08PM 40.2436 -94.8597 190° South 443 510 32,000  Level Minneapolis Center
12:09PM 40.1244 -94.8878 190° South 438 504 32,000  Level Minneapolis Center
12:10PM 40.0078 -94.9119 189° South 428 493 32,000  Level Kansas City Center
12:11PM 39.8961 -94.9319 188° South 422 486 32,000  Level Kansas City Center
12:12PM 39.7656 -94.9431 184° South 421 484 32,000  Level Kansas City Center
12:13PM 39.6536 -94.9542 184° South 420 483 32,000  Level Kansas City Center
12:14PM 39.5411 -94.9633 184° South 421 484 32,000  Level Kansas City Center
12:15PM 39.4086 -94.9764 184° South 423 487 32,000  Level Kansas City Center
12:16PM 39.2944 -94.9872 184° South 425 489 32,000  Level Kansas City Center
12:17PM 39.1783 -94.9975 184° South 429 494 32,000  Level Kansas City Center
12:18PM 39.0433 -95.0111 184° South 430 495 32,000  Level Kansas City Center
12:19PM 38.9272 -95.0217 184° South 434 499 32,000  Level Kansas City Center
12:20PM 38.8100 -95.0333 184° South 437 503 32,000  Level Kansas City Center
12:21PM 38.6739 -95.0456 184° South 439 505 32,000  Level Kansas City Center
12:22PM 38.5553 -95.0564 184° South 444 511 32,000  Level Kansas City Center
12:23PM 38.4178 -95.0700 184° South 443 510 32,000  Level Kansas City Center
12:24PM 38.2986 -95.0811 184° South 447 514 32,000  Level Kansas City Center
12:25PM 38.1781 -95.0919 184° South 450 518 32,000  Level Kansas City Center
12:26PM 38.0358 -95.1042 184° South 457 526 32,000  Level Kansas City Center
12:27PM 37.9042 -95.1136 183° South 460 529 32,000  Level Kansas City Center
12:28PM 37.7744 -95.1286 185° South 465 535 32,000  Level Kansas City Center
12:29PM 37.6431 -95.1392 184° South 471 542 32,000 -146 Level Kansas City Center
12:30PM 37.5108 -95.1597 187° South 475 547 31,700 -1,721 Descending Kansas City Center
12:31PM 37.3853 -95.2339 205° Southwest 491 565 28,500 -3,171 Descending Kansas City Center
12:32PM 37.2639 -95.3014 204° Southwest 482 555 25,200 -3,220 Descending Kansas City Center
12:33PM 37.1486 -95.3650 204° Southwest 461 531 21,900 -3,561 Descending Kansas City Center
12:34PM 37.0144 -95.4400 204° Southwest 444 511 17,900 -3,633 Descending Kansas City Center
12:35PM 36.9344 -95.4839 204° Southwest 423 487 15,300 -3,273 Descending Kansas City Center
12:36PM 36.9022 -95.5011 203° Southwest 414 476 14,300 -3,000 Descending Kansas City Center
12:36PM 36.8086 -95.5525 204° Southwest 400 460 11,500 -2,132 Descending Kansas City Center
12:38PM 36.7042 -95.6089 203° Southwest 355 409 10,000 -1,220 Descending Kansas City Center
12:39PM 36.6322 -95.6281 192° South 332 382 9,000 -1,000 Descending Kansas City Center
12:40PM 36.5483 -95.6258 179° South 307 353 8,000 -732 Descending Kansas City Center
12:41PM 36.4631 -95.6222 178° South 309 356 7,500 -1,180 Descending Kansas City Center
12:42PM 36.3672 -95.6203 179° South 294 338 5,600 -1,707 Descending Kansas City Center
12:43PM 36.2864 -95.6158 177° South 294 338 4,000 -1,041 Descending Kansas City Center
12:44PM 36.2189 -95.6272 188° South 230 265 3,500 -637 Descending Kansas City Center
12:44PM 36.1983 -95.6792 244° Southwest 168 193 2,800 -621 Descending Kansas City Center
12:46PM 36.1958 -95.7236 266° West 114 131 2,300 -248 Descending Kansas City Center
12:47PM 36.1953 -95.7650 269° West 114 131 2,300  Level Kansas City Center